#timestamp,LO_Frequency,Hit,StdDev 
1668877215.5,286046998.2,N
1668877235.3,286046998.5,N
1668877255.1,286047001.1,N
1668877275.9,286047000.0,N
1668877295.7,286046999.0,N
1668877315.6,286046999.5,N
1668877335.4,286046998.2,N
1668877355.2,286046998.4,N
1668877375.1,286046998.1,N
1668877376.0,286046998.1,N
1668877395.8,286046999.7,N
1668877415.7,286047000.4,N
1668877435.5,286047002.4,N
1668877455.3,286047001.9,N
1668877475.2,286047002.6,N
1668877495.9,286047002.5,N
1668877515.7,286047002.2,N
1668877535.6,286047002.0,N
1668877555.4,286047003.6,N
1668877575.3,286047002.1,N
1668877595.1,286047001.5,N
1668877596.0,286047001.5,N
1668877615.8,286047002.4,N
1668877635.7,286047000.4,N
1668877655.5,286047000.1,N
1668877675.3,286047000.2,N
1668877695.2,286047000.2,N
1668877715.0,286046999.9,N
1668877715.9,286046999.9,N
1668877735.8,286047002.4,N
1668877755.6,286047000.1,N
1668877775.4,286047000.1,N
1668877795.3,286047002.4,N
1668877815.1,286047002.4,N
1668877835.8,286047000.1,N
1668877855.7,286047002.5,N
1668877875.5,286047001.8,N
1668877895.4,286047002.6,N
1668877915.2,286047003.9,N
1668877935.0,286047002.5,N
1668877935.9,286047002.5,N
1668877955.8,286047001.6,N
1668877975.6,286047002.3,N
1668877995.4,286046999.7,N
1668878015.3,286047002.2,N
1668878035.1,286046999.9,N
1668878055.9,286047001.0,N
1668878075.7,286047000.6,N
1668878095.5,286047001.5,N
1668878115.4,286047002.8,N
1668878135.2,286047001.5,N
1668878155.0,286047002.1,N
1668878155.9,286047002.1,N
1668878175.8,286047001.4,N
1668878195.6,286047002.5,N
1668878215.5,286047000.2,N
1668878235.3,286046998.6,N
1668878255.1,286047000.8,N
1668878275.9,286047000.5,N
1668878295.7,286047001.0,N
1668878315.5,286047001.2,N
1668878335.4,286047001.1,N
1668878355.2,286047000.9,N
1668878375.1,286047001.1,N
1668878376.0,286047001.1,N
1668878395.8,286047000.6,N
1668878415.6,286047001.9,N
1668878435.5,286047004.0,Y
1668878455.3,286046999.7,P
1668878475.1,286047002.7,P
1668878495.9,286047000.5,N
1668878515.7,286046999.9,N
1668878535.6,286047002.8,N
1668878555.4,286047000.0,N
1668878575.2,286047000.2,N
1668878595.1,286046999.7,N
1668878596.0,286046999.7,N
1668878615.8,286047000.6,N
1668878635.6,286047000.6,N
1668878655.5,286047000.0,N
1668878675.3,286047000.0,N
1668878695.2,286047000.0,N
1668878715.9,286047001.9,N
1668878735.7,286046999.8,N
1668878755.6,286047001.0,N
1668878775.4,286047002.7,N
1668878795.2,286047002.4,N
1668878815.1,286046999.8,N
1668878816.0,286046999.8,N
1668878835.8,286046999.8,N
1668878855.7,286047000.4,N
1668878875.5,286047002.3,N
1668878895.3,286047000.6,N
1668878915.2,286047001.1,N
1668878935.0,286046998.5,N
1668878935.9,286046998.5,N
1668878955.7,286047000.0,N
1668878975.6,286046998.6,N
1668878995.4,286046998.9,N
1668879015.3,286046998.9,N
1668879035.1,286046999.6,N
1668879055.9,286046998.3,N
1668879075.7,286046998.8,N
1668879095.5,286046996.6,Y
1668879115.4,286046996.9,P
1668879135.2,286046996.7,N
1668879155.0,286046999.0,N
1668879155.9,286046999.0,N
1668879175.8,286046996.7,N
1668879195.6,286046997.8,N
1668879215.5,286046994.9,Y
1668879235.3,286046998.9,P
1668879255.1,286046999.6,N
1668879275.9,286046999.1,N
1668879295.7,286046997.1,Y
1668879315.6,286046999.5,P
1668879335.4,286046998.8,P
1668879355.2,286046998.8,P
1668879375.1,286046996.6,Y
1668879376.0,286046996.6,P
1668879395.8,286047000.9,N
1668879415.6,286047000.8,N
1668879435.5,286046998.2,N
1668879455.3,286046998.4,N
1668879475.2,286046996.9,N
1668879495.9,286046999.6,N
1668879515.7,286046999.1,N
1668879535.6,286046996.5,N
1668879555.4,286046999.1,N
1668879575.2,286046999.1,N
1668879595.1,286046999.0,N
1668879596.0,286046999.0,N
1668879615.8,286046999.0,N
1668879635.7,286046998.4,N
1668879655.5,286046999.3,N
1668879675.3,286046999.3,N
1668879695.2,286046999.5,N
1668879715.0,286046996.8,N
1668879715.9,286046996.8,N
1668879735.7,286046997.5,N
1668879755.6,286046996.5,N
1668879775.4,286046997.8,N
1668879795.3,286046995.5,Y
1668879815.1,286046999.0,P
1668879816.0,286046999.0,P
1668879835.8,286047001.0,P
1668879855.7,286046998.6,N
1668879875.5,286046998.9,N
1668879895.4,286046997.1,Y
1668879915.2,286046998.8,P
1668879935.0,286046999.3,P
1668879935.9,286046999.3,P
1668879955.8,286046996.5,Y
1668879975.6,286046999.9,P
1668879995.4,286047000.2,N
1668880015.3,286047001.1,N
1668880035.1,286046998.1,N
1668880055.9,286046999.2,N
1668880075.7,286046999.4,N
1668880095.5,286046999.4,N
1668880115.4,286046998.7,N
1668880135.2,286046999.4,N
1668880155.0,286046999.6,N
1668880155.9,286046999.6,N
1668880175.8,286046997.1,Y
1668880195.6,286046997.7,P
1668880215.5,286046999.4,N
1668880235.3,286046999.5,N
1668880255.1,286046999.5,N
1668880275.9,286046998.9,N
1668880295.7,286046996.9,Y
1668880315.6,286046998.9,P
1668880335.4,286046999.5,P
1668880355.2,286046999.1,P
1668880375.1,286046998.7,Y
1668880376.0,286046998.7,P
1668880395.8,286046998.1,P
1668880415.7,286046998.2,P
1668880435.5,286046998.7,Y
1668880455.3,286047000.9,P
1668880475.2,286047001.0,N
1668880495.0,286046999.9,N
1668880495.9,286046999.9,N
1668880515.7,286047001.0,N
1668880535.6,286047000.7,N
1668880555.4,286047000.5,N
1668880575.3,286047001.0,N
1668880595.1,286047000.0,N
1668880596.0,286047000.0,N
1668880615.8,286047000.3,N
1668880635.7,286047002.8,Y
1668880655.5,286047002.8,P
1668880675.3,286047000.1,N
1668880695.2,286047001.9,N
1668880715.0,286047002.5,N
1668880715.9,286047002.5,N
1668880735.8,286047002.0,N
1668880755.6,286047000.3,N
1668880775.4,286047000.6,N
1668880795.3,286047000.4,N
